Printer-friendly version

IAU Minor Planet Center

Minor Planet Center

MPEC 2006-L10 : 2006 KY112

The following Minor Planet Electronic Circular may be linked-to from your own Web pages, but must not otherwise be redistributed electronically.


Read MPEC 2006-L09 Read MPEC 2006-L11


M.P.E.C. 2006-L10                                Issued 2006 June 2, 09:41 UT

     The Minor Planet Electronic Circulars contain information on unusual
         minor planets and routine data on comets.  They are published
   on behalf of Commission 20 of the International Astronomical Union by the
          Minor Planet Center, Smithsonian Astrophysical Observatory,
                          Cambridge, MA 02138, U.S.A.

                  Supported in part by the Brinson Foundation
                  Supported in part by the TABASGO Foundation
             Prepared using the Tamkin Foundation Computer Network

                              MPC@CFA.HARVARD.EDU
          URL http://cfa-www.harvard.edu/iau/mpc.html  ISSN 1523-6714

                                  2006 KY112

Observations:
     K06KB2Y* C2006 05 31.22621 13 44 40.45 +26 56 43.7          19.2   EL010704
     K06KB2Y  C2006 05 31.23710 13 44 38.88 +26 55 06.6          19.0   EL010704
     K06KB2Y  C2006 05 31.25890 13 44 35.78 +26 51 48.3          18.8   EL010704
     K06KB2Y  C2006 05 31.26981 13 44 34.20 +26 50 10.5          19.1   EL010704
     K06KB2Y  C2006 06 01.24756 13 42 39.46 +24 19 10.5          18.9   EL010704
     K06KB2Y  C2006 06 01.25827 13 42 38.01 +24 17 28.1          18.8   EL010704
     K06KB2Y  C2006 06 01.26899 13 42 36.43 +24 15 45.4          19.2   EL010704
     K06KB2Y  C2006 06 02.14481 13 40 58.21 +21 53 44.6          20.2 R EL010734
     K06KB2Y  C2006 06 02.14722 13 40 57.93 +21 53 20.0          20.0 R EL010734
     K06KB2Y  C2006 06 02.15692 13 40 56.59 +21 51 43.2          18.7 R EL010734
     K06KB2Y  C2006 06 02.16357 13 40 55.67 +21 50 37.3          18.8 R EL010734
     K06KB2Y  C2006 06 02.16698 13 40 56.24 +21 50 11.0          18.4 V EL010G96
     K06KB2Y  C2006 06 02.16740 13 40 56.20 +21 50 06.7          18.5 V EL010G96
     K06KB2Y  C2006 06 02.16781 13 40 56.13 +21 50 02.5          18.4 V EL010G96
     K06KB2Y  C2006 06 02.16823 13 40 56.10 +21 49 58.4          18.5 V EL010G96
     K06KB2Y  C2006 06 02.22507 13 40 48.11 +21 40 31.7          18.7 R EL010854
     K06KB2Y  C2006 06 02.22888 13 40 47.57 +21 39 53.7          18.9 R EL010854
     K06KB2Y  C2006 06 02.23269 13 40 47.06 +21 39 15.5          18.7 R EL010854

Observer details:
704 Lincoln Laboratory ETS, New Mexico.  Observers M. Bezpalko, L. Manguso,
    D. Torres, R. Kracke, M. Blythe, H. Love, G. Spitz.  Measurers J. Stuart,
    J. Kommers.  1.0-m f/2.15 reflector + CCD.
734 Farpoint Observatory.  Observer D. Tibbets.  Measurer G. Hug.  0.7-m
    reflector + CCD.
854 Sabino Canyon Observatory, Tucson.  Observer J. E. McGaha.  0.36-m f/10.0
    Schmidt-Cassegrain + CCD.
G96 Mt. Lemmon Survey.  Observer R. Hill.  Measurers E. C. Beshore,
    E. J. Christensen, G. J. Garradd, A. R. Gibbs, A. D. Grauer, R. E. Hill,
    R. A. Kowalski, S. M. Larson, R. H. McNaught.  1.5-m reflector + CCD.

Orbital elements:
2006 KY112                                               Earth MOID = 0.0682 AU
Epoch 2006 May 25.0 TT = JDT 2453880.5                  MPC
M 355.61114              (2000.0)            P               Q
n   0.55570579     Peri.  170.22695     -0.40202711     +0.84850207
a   1.4652310      Node    75.39445     -0.86225576     -0.22439909
e   0.2629546      Incl.   20.83093     -0.30804093     -0.47925910
P   1.77           H   21.3           G   0.15
From 18 observations 2006 May 31-June 2.

Ephemeris:
2006 KY112               a,e,i = 1.47, 0.26, 21                  q = 1.0799
Date    TT    R. A. (2000) Decl.     Delta      r     Elong.  Phase     V
2006 05 25    13 58.05   +39 56.9    0.157    1.082   112.2    60.0    19.6
2006 06 04    13 37.58   +16 33.9    0.123    1.080   119.5    54.9    18.9
2006 06 14    13 23.13   -16 07.4    0.121    1.085   122.2    52.4    18.8
2006 06 24    13 16.41   -42 08.1    0.154    1.096   117.5    55.4    19.4
2006 07 04    13 20.08   -57 13.8    0.206    1.113   112.9    57.3    20.2
2006 07 14    13 37.32   -66 05.0    0.264    1.136   110.3    57.1    20.8
2006 07 24    14 12.76   -71 36.3    0.325    1.163   108.9    55.7    21.2
2006 08 03    15 11.58   -74 53.6    0.386    1.194   108.3    53.8    21.6
2006 08 13    16 31.07   -76 05.3    0.447    1.228   108.0    51.7    21.9

Timothy B. Spahr             (C) Copyright 2006 MPC           M.P.E.C. 2006-L10

Read MPEC 2006-L09 Read MPEC 2006-L11


Our Web policy. Index to the CBAT/MPC/ICQ pages.


Valid HTML 4.01!